Regional Weather Roundup
Issued by NWS

Home | Current Version | Previous Version | Graphics & Text | Print | Product List | Glossary On
Versions: 1 2 3 4 5 6 7 8 9 10 11 12 13 14 15 16 17 18 19 20 21 22 23 24 25 26 27 28 29 30 31 32 33 34 35 36 37 38 39 40 41 42 43 44 45 46 47 48 49 50
000
ASUS44 KMEG 011500
RWRTN
TENNESSEE HOURLY STATE WEATHER ROUNDUP
NATIONAL WEATHER SERVICE MEMPHIS TN
900 AM CST SUN MAR 01 2015

TNZ002-004-019-021-049-052-054-088>092-011600-
WEST TENNESSEE

CITY           SKY/WX    TMP DP  RH WIND       PRES   REMARKS
MEMPHIS INTL   RAIN      36  33  89 NE3       30.39R FOG
NWS MEMPHIS      N/A     35 N/A N/A MISG        N/A
JACKSON        LGT RAIN  38  35  89 N3        30.39R FOG
DYERSBURG      CLOUDY    34  19  55 E5        30.40F WCI  30
UNION CITY     CLOUDY    32  32 100 SE3       30.36F
PARIS          CLOUDY    32  30  93 CALM      30.39R
LEXINGTON      CLOUDY    39  36  87 CALM      30.37S
SAVANNAH       CLOUDY    46  43  87 CALM      30.38S
$$

TNZ008-025-027-028-033-062-065-066-011600-
NORTH MIDDLE TENNESSEE

CITY           SKY/WX    TMP DP  RH WIND       PRES   REMARKS
NASHVILLE      CLOUDY    50  38  63 S8        30.38S
CLARKSVILLE    LGT RAIN  37  33  85 CALM      30.39R FOG
COOKEVILLE     CLOUDY    48  41  76 S8        30.38R
CROSSVILLE     CLOUDY    46  41  82 S12G18    30.39F
$$

TNZ061-075-076-078-094-096-097-011600-
SOUTH MIDDLE TENNESSEE

CITY           SKY/WX    TMP DP  RH WIND       PRES   REMARKS
FAYETTEVILLE   CLOUDY    45  39  81 S10         N/A
TULLAHOMA      CLOUDY    46  39  76 S8        30.40R
WINCHESTER     CLOUDY    46  41  81 SE9       30.41R
COLUMBIA       CLOUDY    48  48 100 S6        30.38R
SHELBYVILLE    CLOUDY    48  41  76 S9        30.40R
$$

TNZ017-018-042-046-047-011600-
NORTHEAST TENNESSEE

CITY           SKY/WX    TMP DP  RH WIND       PRES   REMARKS
TRI CITIES     CLOUDY    42  29  59 S3        30.44F
ELIZABETHTON   SUNNY     48  36  61 CALM      30.43S
$$

TNZ012-013-036-069-073-074-011600-
CENTRAL EAST TENNESSEE

CITY           SKY/WX    TMP DP  RH WIND       PRES   REMARKS
KNOXVILLE      CLOUDY    39  31  72 SE7       30.44F WCI  34
OAK RIDGE      CLOUDY    44  32  62 VRB6      30.46R
GATLINBURG     PTSUNNY   39  28  65 CALM      30.46R
$$

TNZ083-085-099-011600-
SOUTHEAST TENNESSEE

CITY           SKY/WX    TMP DP  RH WIND       PRES   REMARKS
CHATTANOOGA    CLOUDY    44  34  67 S6        30.47S
$$

SKY/WX REPORTED AS FAIR MEANS FEW OR NO CLOUDS BELOW
12 THOUSAND FEET.



USA.gov is the U.S. government's official web portal to all federal, state and local government web resources and services.